Location: Baumgarten
(49.0970°N, 12.7493°E)
Time: 18:12:32
(UTC+00:00)

Cosmos 2074 Rocket - Pass Details

Date: 05 July 2020
Orbit: 967 x 986 km, 82.9° (Epoch: 11 August)

Event Time Altitude Azimuth Distance (km) Brightness Sun altitude
Exits shadow 21:29:13 15° 188° (S) 2,390 5.5 -14.5°
Maximum altitude 21:34:35 89° 281° (W) 980 4.0 -14.9°
Drops below altitude 10° 21:40:50 10° 9° (N) 2,723 7.3 -15.3°
Sets 21:43:21 0° 10° (N) 3,673 8.1 -15.5°
